Location: UFOWorks Observatory
(42.1050°N, 72.2350°W)
Time: 07:22:23
(UTC-05:00)

ISS - Visible Passes

Search period start: 26 February 2017 00:00
Search period end: 08 March 2017 00:00
Orbit: 399 x 408 km, 51.6° (Epoch: 26 February)

Date Brightness Start Highest point End Pass type
(mag) Time Alt. Az. Time Alt. Az. Time Alt. Az.
28 Feb -0.2 05:24:11 10° SSE 05:25:31 12° SE 05:26:51 10° ESE visible
02 Mar -1.3 05:13:44 10° SSW 05:16:35 27° SE 05:19:26 10° ENE visible
03 Mar -0.6 04:22:59 13° SSE 04:24:12 15° SE 04:26:08 10° E visible
04 Mar -3.0 05:05:40 21° SW 05:07:43 65° SE 05:10:59 10° ENE visible
05 Mar -1.8 04:15:31 32° SE 04:15:31 32° SE 04:18:14 10° ENE visible
06 Mar -3.1 04:57:53 36° W 04:58:57 56° NNW 05:02:13 10° NE visible
07 Mar -1.8 04:07:29 37° ENE 04:07:29 37° ENE 04:09:37 10° ENE visible
07 Mar -1.7 05:40:24 10° WNW 05:43:05 22° NNW 05:45:47 10° NE visible
